Time,TemperatureF,DewpointF,PressureIn,WindDirection,WindDirectionDegrees,WindSpeedMPH,WindSpeedGustMPH,Humidity,HourlyPrecipIn,Conditions,Clouds,dailyrainin,SoftwareType,DateUTC
2013-08-18 00:08:00,62.4,62.1,30.08,West,270,0.0,-999.0,99,-99.99,,,0.01,Acu-Link.com,2013-08-18 04:08:00,
2013-08-18 00:23:00,62.4,62.1,30.07,South,180,0.0,-999.0,99,-99.99,,,0.01,Acu-Link.com,2013-08-18 04:23:00,
2013-08-18 00:39:00,62.4,62.1,30.08,SW,225,0.0,-999.0,99,-99.99,,,0.01,Acu-Link.com,2013-08-18 04:39:00,
2013-08-18 00:54:00,62.4,62.1,30.07,NNW,337,0.0,-999.0,99,-99.99,,,0.01,Acu-Link.com,2013-08-18 04:54:00,
2013-08-18 01:09:00,62.2,61.9,30.07,ESE,112,0.0,-999.0,99,-99.99,,,0.01,Acu-Link.com,2013-08-18 05:09:00,
2013-08-18 01:24:00,62.2,61.9,30.07,West,270,0.0,-999.0,99,-99.99,,,0.01,Acu-Link.com,2013-08-18 05:24:00,
2013-08-18 01:40:00,62.2,61.9,30.07,SW,225,0.0,-999.0,99,-99.99,,,0.01,Acu-Link.com,2013-08-18 05:40:00,
2013-08-18 01:55:00,62.2,61.9,30.06,WSW,247,0.0,-999.0,99,-99.99,,,0.01,Acu-Link.com,2013-08-18 05:55:00,
2013-08-18 02:10:00,62.1,61.8,30.06,SE,135,0.0,-999.0,99,-99.99,,,0.01,Acu-Link.com,2013-08-18 06:10:00,
2013-08-18 02:25:00,62.1,61.8,30.04,WNW,292,0.0,-999.0,99,-99.99,,,0.01,Acu-Link.com,2013-08-18 06:25:00,
2013-08-18 02:41:00,61.9,61.6,30.04,SW,225,0.0,-999.0,99,-99.99,,,0.01,Acu-Link.com,2013-08-18 06:41:00,
2013-08-18 02:56:00,61.9,61.6,30.05,East,90,1.1,-999.0,99,-99.99,,,0.01,Acu-Link.com,2013-08-18 06:56:00,
2013-08-18 03:11:00,61.9,61.6,30.04,West,270,0.0,-999.0,99,-99.99,,,0.01,Acu-Link.com,2013-08-18 07:11:00,
2013-08-18 03:27:00,61.9,61.6,30.04,West,270,1.1,-999.0,99,-99.99,,,0.01,Acu-Link.com,2013-08-18 07:27:00,
2013-08-18 03:42:00,61.9,61.6,30.05,SSE,157,0.0,-999.0,99,-99.99,,,0.01,Acu-Link.com,2013-08-18 07:42:00,
2013-08-18 03:57:00,61.9,61.6,30.05,SW,225,1.7,-999.0,99,-99.99,,,0.01,Acu-Link.com,2013-08-18 07:57:00,
2013-08-18 04:13:00,61.9,61.6,30.05,NNE,22,3.2,-999.0,99,-99.99,,,0.01,Acu-Link.com,2013-08-18 08:13:00,
2013-08-18 04:28:00,61.9,61.6,30.05,West,270,0.0,-999.0,99,-99.99,,,0.01,Acu-Link.com,2013-08-18 08:28:00,
2013-08-18 04:43:00,61.9,61.6,30.05,WNW,292,2.2,-999.0,99,-99.99,,,0.01,Acu-Link.com,2013-08-18 08:43:00,
2013-08-18 04:58:00,61.9,61.6,30.04,West,270,2.2,-999.0,99,-99.99,,,0.01,Acu-Link.com,2013-08-18 08:58:00,
2013-08-18 05:13:00,61.9,61.6,30.05,West,270,0.0,-999.0,99,-99.99,,,0.01,Acu-Link.com,2013-08-18 09:13:00,
2013-08-18 05:28:00,61.9,61.6,30.06,ESE,112,0.0,-999.0,99,-99.99,,,0.01,Acu-Link.com,2013-08-18 09:28:00,
2013-08-18 05:43:00,62.1,61.8,30.06,WSW,247,0.0,-999.0,99,-99.99,,,0.01,Acu-Link.com,2013-08-18 09:43:00,
2013-08-18 05:58:00,62.1,61.8,30.07,West,270,0.0,-999.0,99,-99.99,,,0.02,Acu-Link.com,2013-08-18 09:58:00,
2013-08-18 06:13:00,62.2,61.9,30.07,West,270,0.0,-999.0,99,-99.99,,,0.02,Acu-Link.com,2013-08-18 10:13:00,
2013-08-18 06:29:00,62.2,61.9,30.07,West,270,0.0,-999.0,99,-99.99,,,0.02,Acu-Link.com,2013-08-18 10:29:00,
2013-08-18 06:44:00,62.2,61.9,30.08,WSW,247,0.0,-999.0,99,-99.99,,,0.02,Acu-Link.com,2013-08-18 10:44:00,
2013-08-18 06:59:00,62.2,61.9,30.09,WSW,247,0.0,-999.0,99,-99.99,,,0.02,Acu-Link.com,2013-08-18 10:59:00,
2013-08-18 07:14:00,62.2,61.9,30.09,East,90,0.0,-999.0,99,-99.99,,,0.03,Acu-Link.com,2013-08-18 11:14:00,
2013-08-18 07:30:00,62.2,61.9,30.09,WNW,292,1.1,-999.0,99,-99.99,,,0.04,Acu-Link.com,2013-08-18 11:30:00,
2013-08-18 07:45:00,62.2,61.9,30.08,West,270,1.7,-999.0,99,-99.99,,,0.05,Acu-Link.com,2013-08-18 11:45:00,
2013-08-18 08:00:00,62.4,62.1,30.09,East,90,0.0,-999.0,99,-99.99,,,0.08,Acu-Link.com,2013-08-18 12:00:00,
2013-08-18 08:16:00,62.8,62.5,30.11,NW,315,0.0,-999.0,99,-99.99,,,0.08,Acu-Link.com,2013-08-18 12:16:00,
2013-08-18 08:31:00,63.0,62.7,30.10,SSE,157,0.0,-999.0,99,-99.99,,,0.08,Acu-Link.com,2013-08-18 12:31:00,
2013-08-18 08:46:00,63.1,62.8,30.12,West,270,0.0,-999.0,99,-99.99,,,0.08,Acu-Link.com,2013-08-18 12:46:00,
2013-08-18 09:01:00,63.5,63.2,30.12,WNW,292,1.7,-999.0,99,-99.99,,,0.08,Acu-Link.com,2013-08-18 13:01:00,
2013-08-18 09:17:00,63.9,63.6,30.13,SW,225,0.0,-999.0,99,-99.99,,,0.08,Acu-Link.com,2013-08-18 13:17:00,
2013-08-18 09:32:00,64.0,63.7,30.12,NE,45,0.0,-999.0,99,-99.99,,,0.08,Acu-Link.com,2013-08-18 13:32:00,
2013-08-18 09:47:00,65.1,64.8,30.12,SSW,202,0.0,-999.0,99,-99.99,,,0.09,Acu-Link.com,2013-08-18 13:47:00,
2013-08-18 10:02:00,65.8,65.5,30.12,WSW,247,1.7,-999.0,99,-99.99,,,0.09,Acu-Link.com,2013-08-18 14:02:00,
2013-08-18 10:18:00,66.4,66.1,30.14,SSW,202,0.0,-999.0,99,-99.99,,,0.09,Acu-Link.com,2013-08-18 14:18:00,
2013-08-18 10:33:00,67.1,66.5,30.14,South,180,0.0,-999.0,98,-99.99,,,0.09,Acu-Link.com,2013-08-18 14:33:00,
2013-08-18 10:48:00,67.8,66.9,30.14,SE,135,1.1,-999.0,97,-99.99,,,0.09,Acu-Link.com,2013-08-18 14:48:00,
2013-08-18 11:03:00,68.4,66.9,30.13,SW,225,0.0,-999.0,95,-99.99,,,0.09,Acu-Link.com,2013-08-18 15:03:00,
2013-08-18 11:19:00,68.7,67.5,30.12,SW,225,0.0,-999.0,96,-99.99,,,0.09,Acu-Link.com,2013-08-18 15:19:00,
2013-08-18 11:34:00,69.1,67.3,30.11,ESE,112,1.7,-999.0,94,-99.99,,,0.09,Acu-Link.com,2013-08-18 15:34:00,
2013-08-18 11:49:00,69.6,66.9,30.12,ESE,112,1.1,-999.0,91,-99.99,,,0.09,Acu-Link.com,2013-08-18 15:49:00,
2013-08-18 12:05:00,70.2,67.8,30.12,SE,135,1.7,-999.0,92,-99.99,,,0.09,Acu-Link.com,2013-08-18 16:05:00,
2013-08-18 12:20:00,70.3,66.9,30.12,South,180,2.2,-999.0,89,-99.99,,,0.09,Acu-Link.com,2013-08-18 16:20:00,
2013-08-18 12:35:00,71.4,68.0,30.13,NW,315,1.7,-999.0,89,-99.99,,,0.09,Acu-Link.com,2013-08-18 16:35:00,
2013-08-18 12:50:00,71.2,66.1,30.12,NE,45,1.7,-999.0,84,-99.99,,,0.09,Acu-Link.com,2013-08-18 16:50:00,
2013-08-18 13:06:00,73.2,68.4,30.12,South,180,0.0,-999.0,85,-99.99,,,0.09,Acu-Link.com,2013-08-18 17:06:00,
2013-08-18 13:21:00,72.0,66.9,30.11,NNE,22,3.7,-999.0,84,-99.99,,,0.09,Acu-Link.com,2013-08-18 17:21:00,
2013-08-18 13:36:00,74.5,69.7,30.10,South,180,0.0,-999.0,85,-99.99,,,0.09,Acu-Link.com,2013-08-18 17:36:00,
2013-08-18 13:52:00,73.0,68.2,30.10,NNE,22,2.2,-999.0,85,-99.99,,,0.09,Acu-Link.com,2013-08-18 17:52:00,
2013-08-18 14:07:00,74.1,68.9,30.10,South,180,0.0,-999.0,84,-99.99,,,0.09,Acu-Link.com,2013-08-18 18:07:00,
2013-08-18 14:22:00,76.1,69.1,30.09,South,180,1.1,-999.0,79,-99.99,,,0.09,Acu-Link.com,2013-08-18 18:22:00,
2013-08-18 14:37:00,75.9,68.5,30.09,WSW,247,0.0,-999.0,78,-99.99,,,0.09,Acu-Link.com,2013-08-18 18:37:00,
2013-08-18 14:52:00,77.0,69.2,30.09,South,180,0.0,-999.0,77,-99.99,,,0.09,Acu-Link.com,2013-08-18 18:52:00,
2013-08-18 15:08:00,76.8,69.8,30.09,WNW,292,1.1,-999.0,79,-99.99,,,0.09,Acu-Link.com,2013-08-18 19:08:00,
2013-08-18 15:23:00,75.7,68.7,30.08,SW,225,0.0,-999.0,79,-99.99,,,0.09,Acu-Link.com,2013-08-18 19:23:00,
2013-08-18 15:38:00,74.8,68.9,30.08,WSW,247,0.0,-999.0,82,-99.99,,,0.09,Acu-Link.com,2013-08-18 19:38:00,
2013-08-18 15:54:00,72.7,69.3,30.09,South,180,0.0,-999.0,89,-99.99,,,0.09,Acu-Link.com,2013-08-18 19:54:00,
2013-08-18 16:09:00,71.4,68.3,30.09,SSW,202,0.0,-999.0,90,-99.99,,,0.11,Acu-Link.com,2013-08-18 20:09:00,
2013-08-18 16:24:00,70.5,68.7,30.09,South,180,0.0,-999.0,94,-99.99,,,0.11,Acu-Link.com,2013-08-18 20:24:00,
2013-08-18 16:39:00,70.3,68.2,30.08,SSE,157,0.0,-999.0,93,-99.99,,,0.11,Acu-Link.com,2013-08-18 20:39:00,
2013-08-18 16:54:00,70.5,68.7,30.08,West,270,0.0,-999.0,94,-99.99,,,0.12,Acu-Link.com,2013-08-18 20:54:00,
2013-08-18 17:10:00,70.3,68.8,30.08,ESE,112,0.0,-999.0,95,-99.99,,,0.12,Acu-Link.com,2013-08-18 21:10:00,
2013-08-18 17:25:00,70.5,67.7,30.07,ESE,112,0.0,-999.0,91,-99.99,,,0.12,Acu-Link.com,2013-08-18 21:25:00,
2013-08-18 17:40:00,70.2,67.1,30.06,East,90,0.0,-999.0,90,-99.99,,,0.12,Acu-Link.com,2013-08-18 21:40:00,
2013-08-18 17:55:00,70.2,68.4,30.07,SSE,157,0.0,-999.0,94,-99.99,,,0.13,Acu-Link.com,2013-08-18 21:55:00,
2013-08-18 18:10:00,70.2,68.4,30.07,WSW,247,0.0,-999.0,94,-99.99,,,0.13,Acu-Link.com,2013-08-18 22:10:00,
2013-08-18 18:26:00,70.0,68.2,30.06,SW,225,0.0,-999.0,94,-99.99,,,0.13,Acu-Link.com,2013-08-18 22:26:00,
2013-08-18 18:41:00,70.0,68.5,30.07,SSW,202,0.0,-999.0,95,-99.99,,,0.13,Acu-Link.com,2013-08-18 22:41:00,
2013-08-18 18:56:00,69.4,67.9,30.07,South,180,0.0,-999.0,95,-99.99,,,0.13,Acu-Link.com,2013-08-18 22:56:00,
2013-08-18 19:12:00,69.4,68.5,30.07,South,180,0.0,-999.0,97,-99.99,,,0.13,Acu-Link.com,2013-08-18 23:12:00,
2013-08-18 19:27:00,69.1,68.2,30.08,South,180,0.0,-999.0,97,-99.99,,,0.13,Acu-Link.com,2013-08-18 23:27:00,
2013-08-18 19:42:00,68.5,67.6,30.09,NNE,22,0.0,-999.0,97,-99.99,,,0.13,Acu-Link.com,2013-08-18 23:42:00,
2013-08-18 19:58:00,68.0,67.1,30.09,East,90,0.0,-999.0,97,-99.99,,,0.13,Acu-Link.com,2013-08-18 23:58:00,
2013-08-18 20:13:00,67.8,67.5,30.09,ESE,112,0.0,-999.0,99,-99.99,,,0.13,Acu-Link.com,2013-08-19 00:13:00,
2013-08-18 20:28:00,67.3,67.0,30.09,SW,225,0.0,-999.0,99,-99.99,,,0.13,Acu-Link.com,2013-08-19 00:28:00,
2013-08-18 20:43:00,67.1,66.8,30.09,West,270,0.0,-999.0,99,-99.99,,,0.13,Acu-Link.com,2013-08-19 00:43:00,
2013-08-18 20:58:00,66.9,66.6,30.10,WNW,292,0.0,-999.0,99,-99.99,,,0.13,Acu-Link.com,2013-08-19 00:58:00,
2013-08-18 21:14:00,66.7,66.4,30.10,ESE,112,0.0,-999.0,99,-99.99,,,0.13,Acu-Link.com,2013-08-19 01:14:00,
2013-08-18 21:29:00,66.4,66.1,30.11,East,90,0.0,-999.0,99,-99.99,,,0.14,Acu-Link.com,2013-08-19 01:29:00,
2013-08-18 21:45:00,66.2,65.9,30.11,NNE,22,0.0,-999.0,99,-99.99,,,0.15,Acu-Link.com,2013-08-19 01:45:00,
2013-08-18 22:00:00,65.8,65.5,30.11,South,180,0.0,-999.0,99,-99.99,,,0.17,Acu-Link.com,2013-08-19 02:00:00,
2013-08-18 22:15:00,65.7,65.4,30.11,SW,225,0.0,-999.0,99,-99.99,,,0.17,Acu-Link.com,2013-08-19 02:15:00,
2013-08-18 22:31:00,65.5,65.2,30.11,NE,45,0.0,-999.0,99,-99.99,,,0.18,Acu-Link.com,2013-08-19 02:31:00,
2013-08-18 22:46:00,65.3,65.0,30.11,ENE,67,0.0,-999.0,99,-99.99,,,0.19,Acu-Link.com,2013-08-19 02:46:00,
2013-08-18 23:01:00,65.1,64.8,30.10,ESE,112,0.0,-999.0,99,-99.99,,,0.19,Acu-Link.com,2013-08-19 03:01:00,
2013-08-18 23:16:00,64.9,64.6,30.11,ENE,67,0.0,-999.0,99,-99.99,,,0.19,Acu-Link.com,2013-08-19 03:16:00,
2013-08-18 23:32:00,64.8,64.5,30.12,NW,315,0.0,-999.0,99,-99.99,,,0.19,Acu-Link.com,2013-08-19 03:32:00,
2013-08-18 23:47:00,64.8,64.5,30.12,NNW,337,0.0,-999.0,99,-99.99,,,0.21,Acu-Link.com,2013-08-19 03:47:00,